Location: Borovka
(49.7741°N, 14.5280°E)
Time: 01:46:56
(UTC+00:00)

Meteor 1-28 Rocket - Pass Details

Date: 17 November 2025
Orbit: 433 x 442 km, 97.6° (Epoch: 13 December)

Event Time Altitude Azimuth Distance (km) Brightness Sun altitude
Rises 16:04:35 0° 12° (NNE) 2,461 6.3 -8.0°
Reaches altitude 10° 16:06:37 10° 11° (NNE) 1,586 5.4 -8.3°
Maximum altitude 16:10:01 81° 285° (WNW) 461 3.0 -8.8°
Drops below altitude 10° 16:13:24 10° 198° (SSW) 1,573 6.2 -9.3°
Sets 16:15:24 0° 197° (SSW) 2,439 7.2 -9.6°
